This demonstration page uses our WeatherBlox Daily Observations layout. Learn more.

Left ArrowRight Arrow

36.19886, -115.1175

Hourly Observations for June 29, 2022

Temp ( °F °C ) Dew Point ( °F °C ) Humidity (%) Winds ( mph kmh ) Pressure ( in mb ) Visibility ( mi km ) Precip ( " mm )
12:53 am 00:53 Clear 97 36.1 42 5.6 15 15 SW 9 15 29.84 1011 10 16 0.00 0.00
1:53 am 01:53 Clear 98 36.7 41 5 14 14 WSW 10 17 29.84 1011 10 16 0.00 0.00
2:53 am 02:53 Clear 93 33.9 42 5.6 17 17 S 6 9 29.85 1011 10 16 0.00 0.00
3:53 am 03:53 Clear 93 33.9 42 5.6 17 17 S 12 19 29.85 1011 10 16 0.00 0.00
4:53 am 04:53 Clear 91 32.8 42 5.6 18 18 SSW 6 9 29.87 1012 10 16 0.00 0.00
5:53 am 05:53 Sunny 88 31.1 46 7.8 23 23 Calm 29.89 1012 10 16 0.00 0.00
6:53 am 06:53 Sunny 89 31.7 45 7.2 22 22 Calm 29.91 1013 10 16 0.00 0.00
7:53 am 07:53 Sunny 93 33.9 42 5.6 17 17 E 5 7 29.92 1013 10 16 0.00 0.00
8:53 am 08:53 Sunny 97 36.1 40 4.4 14 14 VRB 3 6 29.92 1013 10 16 0.00 0.00
9:53 am 09:53 Sunny 102 38.9 40 4.4 12 12 SE 12 19 29.90 1013 10 16 0.00 0.00
10:42 am 10:42 Sunny 104 40 48 8.9 15 15 S 14 22 29.73 1007 10 16 0.00 0.00
10:53 am 10:53 Sunny 105 40.6 49 9.4 15 15 S 18 30 29.89 1012 10 16 0.00 0.00
11:53 am 11:53 Sunny 105 40.6 46 7.8 14 14 SSW 16 26 29.88 1012 10 16 0.00 0.00
12:53 pm 12:53 Sunny 106 41.1 45 7.2 13 13 SSW 15 24 29.86 1011 10 16 0.00 0.00
1:53 pm 13:53 Sunny 108 42.2 44 6.7 12 12 SSW 24 39 29.82 1010 10 16 0.00 0.00
2:53 pm 14:53 Sunny 108 42.2 40 4.4 10 10 SW 18 30 29.81 1010 10 16 0.00 0.00
3:53 pm 15:53 Sunny 107 41.7 40 4.4 10 10 SW 15 24 29.79 1009 10 16 0.00 0.00
4:53 pm 16:53 Sunny 108 42.2 39 3.9 9 9 SW 15 24 29.77 1008 10 16 0.00 0.00
5:53 pm 17:53 Sunny 107 41.7 38 3.3 9 9 WSW 15 24 29.75 1008 10 16 0.00 0.00
6:53 pm 18:53 Sunny 106 41.1 38 3.3 10 10 WSW 17 28 29.75 1008 10 16 0.00 0.00
7:53 pm 19:53 Sunny 103 39.4 37 2.8 10 10 SW 17 28 29.77 1008 10 16 0.00 0.00
8:53 pm 20:53 Clear 101 38.3 38 3.3 11 11 SW 14 22 29.79 1009 10 16 0.00 0.00
9:53 pm 21:53 Clear 99 37.2 39 3.9 12 12 WSW 12 19 29.81 1010 10 16 0.00 0.00
10:53 pm 22:53 Clear 98 36.7 40 4.4 13 13 SSW 10 17 29.82 1010 10 16 0.00 0.00
11:53 pm 23:53 Clear 96 35.6 40 4.4 14 14 SSW 8 13 29.82 1010 10 16 0.00 0.00

Powered by AerisWeather